• In Uzbekistan
  • List of Countries
  • For 7 days
  • Water Temperature
  • Satellite Maps
  • Weather Map
  • Weather Widgets
  • user-avatar
    Login

    Hourly Weather Batina

    Today, 23 March, Thursday

    Time Temperature Precipitation Wind Pressure Humidity
    00:00 +8°C° 0 mm 2 mps 668 mmHg 63%
    01:00 +7°C° 0 mm 2 mps 668 mmHg 62%
    02:00 +7°C° 0 mm 2 mps 668 mmHg 61%
    03:00 +7°C° 0 mm 2 mps 668 mmHg 61%
    04:00 +7°C° 0 mm 2 mps 668 mmHg 60%
    05:00 +7°C° 0 mm 2 mps 667 mmHg 59%
    06:00 +7°C° 0 mm 3 mps 667 mmHg 57%
    07:00 +10°C° 0 mm 4 mps 668 mmHg 49%
    08:00 +13°C° 0 mm 5 mps 669 mmHg 40%
    09:00 +17°C° 0 mm 7 mps 670 mmHg 31%
    10:00 +17°C° 0 mm 7 mps 670 mmHg 29%
    11:00 +18°C° 0 mm 8 mps 670 mmHg 27%
    12:00 +19°C° 0 mm 9 mps 670 mmHg 25%
    13:00 +19°C° 0 mm 9 mps 669 mmHg 26%
    14:00 +19°C° 0 mm 9 mps 669 mmHg 26%
    15:00 +19°C° 0 mm 9 mps 669 mmHg 26%
    16:00 +17°C° 0 mm 8 mps 668 mmHg 29%
    17:00 +16°C° 0 mm 7 mps 668 mmHg 32%
    18:00 +15°C° 0 mm 6 mps 668 mmHg 35%
    19:00 +14°C° 0 mm 7 mps 668 mmHg 36%
    20:00 +12°C° 0 mm 7 mps 668 mmHg 37%
    21:00 +12°C° 0 mm 7 mps 669 mmHg 39%
    22:00 +12°C° 0 mm 7 mps 669 mmHg 39%
    23:00 +11°C° 0 mm 8 mps 668 mmHg 40%

    Tomorrow, 24 March, Friday

    Time Temperature Precipitation Wind Pressure Humidity
    00:00 +11°C° 0 mm 8 mps 668 mmHg 40%
    01:00 +11°C° 0 mm 8 mps 668 mmHg 42%
    02:00 +11°C° 0 mm 8 mps 668 mmHg 44%
    03:00 +10°C° 0 mm 8 mps 667 mmHg 46%
    04:00 +10°C° 0 mm 7 mps 667 mmHg 49%
    05:00 +10°C° 0 mm 7 mps 667 mmHg 52%
    06:00 +9°C° 0 mm 6 mps 667 mmHg 55%
    07:00 +11°C° 0 mm 8 mps 667 mmHg 48%
    08:00 +13°C° 0 mm 9 mps 667 mmHg 42%
    09:00 +16°C° 0 mm 11 mps 668 mmHg 35%
    10:00 +16°C° 0 mm 11 mps 668 mmHg 33%
    11:00 +17°C° 0 mm 12 mps 667 mmHg 31%
    12:00 +18°C° 0 mm 12 mps 667 mmHg 29%
    13:00 +18°C° 0 mm 12 mps 666 mmHg 28%
    14:00 +18°C° 0 mm 12 mps 666 mmHg 28%
    15:00 +18°C° 0 mm 13 mps 665 mmHg 28%
    16:00 +17°C° 0 mm 11 mps 665 mmHg 30%
    17:00 +16°C° 0 mm 10 mps 665 mmHg 31%
    18:00 +16°C° 0 mm 9 mps 665 mmHg 33%
    19:00 +13°C° 0 mm 8 mps 665 mmHg 40%
    20:00 +12°C° 0 mm 7 mps 666 mmHg 46%
    21:00 +10°C° 0 mm 6 mps 667 mmHg 53%
    22:00 +9°C° 0 mm 5 mps 667 mmHg 60%
    23:00 +7°C° 0 mm 4 mps 667 mmHg 68%

    Day after tomorrow, 25 March, Saturday

    Time Temperature Precipitation Wind Pressure Humidity
    00:00 +7°C° 0 mm 2 mps 667 mmHg 75%
    01:00 +6°C° 0 mm 2 mps 667 mmHg 77%
    02:00 +5°C° 0 mm 2 mps 667 mmHg 79%
    03:00 +5°C° 0 mm 2 mps 667 mmHg 81%
    04:00 +4°C° 0 mm 2 mps 668 mmHg 81%
    05:00 +4°C° 0 mm 2 mps 668 mmHg 80%
    06:00 +4°C° 0 mm 2 mps 669 mmHg 80%
    07:00 +6°C° 0 mm 2 mps 670 mmHg 66%
    08:00 +10°C° 0 mm 1 mps 671 mmHg 52%
    09:00 +12°C° 0 mm 1 mps 672 mmHg 38%
    10:00 +13°C° 0 mm 2 mps 672 mmHg 30%
    11:00 +15°C° 0 mm 2 mps 672 mmHg 23%
    12:00 +16°C° 0 mm 2 mps 672 mmHg 15%
    13:00 +17°C° 0 mm 3 mps 672 mmHg 13%
    14:00 +17°C° 0 mm 3 mps 672 mmHg 12%
    15:00 +18°C° 0 mm 3 mps 672 mmHg 10%
    16:00 +14°C° 0 mm 3 mps 671 mmHg 14%
    17:00 +13°C° 0 mm 2 mps 671 mmHg 18%
    18:00 +9°C° 0 mm 2 mps 670 mmHg 23%
    19:00 +8°C° 0 mm 2 mps 671 mmHg 29%
    20:00 +8°C° 0 mm 1 mps 671 mmHg 35%
    21:00 +7°C° 0 mm 1 mps 671 mmHg 41%
    22:00 +7°C° 0 mm 1 mps 671 mmHg 43%
    23:00 +6°C° 0 mm 1 mps 671 mmHg 46%

    26 March, Sunday

    Time Temperature Precipitation Wind Pressure Humidity
    00:00 +6°C° 0 mm 1 mps 670 mmHg 49%
    01:00 +6°C° 0 mm 1 mps 670 mmHg 46%
    02:00 +6°C° 0 mm 1 mps 670 mmHg 43%
    03:00 +6°C° 0 mm 1 mps 670 mmHg 41%
    04:00 +6°C° 0 mm 1 mps 670 mmHg 37%
    05:00 +6°C° 0 mm 1 mps 670 mmHg 34%
    06:00 +6°C° 0 mm 2 mps 670 mmHg 31%
    07:00 +9°C° 0 mm 2 mps 671 mmHg 27%
    08:00 +12°C° 0 mm 3 mps 672 mmHg 22%
    09:00 +16°C° 0 mm 3 mps 673 mmHg 18%
    10:00 +17°C° 0 mm 4 mps 673 mmHg 17%
    11:00 +18°C° 0 mm 4 mps 673 mmHg 17%
    12:00 +19°C° 0 mm 5 mps 673 mmHg 17%
    13:00 +19°C° 0 mm 4 mps 672 mmHg 17%
    14:00 +19°C° 0 mm 4 mps 672 mmHg 18%
    15:00 +19°C° 0 mm 4 mps 671 mmHg 18%
    16:00 +17°C° 0 mm 4 mps 671 mmHg 23%
    17:00 +13°C° 0 mm 3 mps 670 mmHg 27%
    18:00 +12°C° 0 mm 2 mps 670 mmHg 32%
    19:00 +10°C° 0 mm 2 mps 670 mmHg 35%
    20:00 +9°C° 0 mm 2 mps 670 mmHg 38%
    21:00 +8°C° 0 mm 2 mps 670 mmHg 41%
    22:00 +8°C° 0 mm 2 mps 670 mmHg 40%
    23:00 +8°C° 0 mm 2 mps 670 mmHg 39%

    27 March, Monday

    Time Temperature Precipitation Wind Pressure Humidity
    00:00 +8°C° 0 mm 2 mps 670 mmHg 38%
    01:00 +7°C° 0 mm 2 mps 669 mmHg 38%
    02:00 +7°C° 0 mm 2 mps 669 mmHg 37%
    03:00 +7°C° 0 mm 2 mps 669 mmHg 36%
    04:00 +7°C° 0 mm 2 mps 669 mmHg 36%
    05:00 +7°C° 0 mm 2 mps 669 mmHg 35%
    06:00 +7°C° 0 mm 2 mps 669 mmHg 35%
    07:00 +11°C° 0 mm 3 mps 670 mmHg 30%
    08:00 +14°C° 0 mm 3 mps 671 mmHg 25%
    09:00 +18°C° 0 mm 4 mps 672 mmHg 20%
    10:00 +19°C° 0 mm 4 mps 672 mmHg 19%
    11:00 +20°C° 0 mm 5 mps 672 mmHg 18%
    12:00 +22°C° 0 mm 5 mps 672 mmHg 17%
    13:00 +22°C° 0 mm 5 mps 671 mmHg 17%
    14:00 +22°C° 0 mm 5 mps 671 mmHg 17%
    15:00 +22°C° 0 mm 5 mps 671 mmHg 18%
    16:00 +19°C° 0 mm 4 mps 670 mmHg 22%
    17:00 +17°C° 0 mm 3 mps 670 mmHg 27%
    18:00 +14°C° 0 mm 2 mps 670 mmHg 31%
    19:00 +14°C° 0 mm 2 mps 670 mmHg 35%
    20:00 +13°C° 0 mm 2 mps 670 mmHg 39%
    21:00 +12°C° 0 mm 1 mps 670 mmHg 42%
    22:00 +11°C° 0 mm 1 mps 670 mmHg 46%
    23:00 +9°C° 0 mm 2 mps 670 mmHg 49%

    28 March, Tuesday

    Time Temperature Precipitation Wind Pressure Humidity
    00:00 +9°C° 0 mm 2 mps 670 mmHg 53%
    01:00 +8°C° 0 mm 2 mps 670 mmHg 54%
    02:00 +8°C° 0 mm 2 mps 669 mmHg 56%
    03:00 +7°C° 0 mm 2 mps 669 mmHg 58%
    04:00 +7°C° 0 mm 2 mps 669 mmHg 58%
    05:00 +7°C° 0 mm 2 mps 670 mmHg 57%
    06:00 +7°C° 0 mm 2 mps 670 mmHg 56%
    07:00 +10°C° 0 mm 2 mps 671 mmHg 48%
    08:00 +13°C° 0 mm 2 mps 672 mmHg 40%
    09:00 +16°C° 0 mm 2 mps 673 mmHg 32%
    10:00 +17°C° 0 mm 2 mps 673 mmHg 30%
    11:00 +18°C° 0 mm 2 mps 673 mmHg 27%
    12:00 +19°C° 0 mm 2 mps 673 mmHg 24%
    13:00 +19°C° 0 mm 3 mps 673 mmHg 24%
    14:00 +20°C° 0 mm 3 mps 673 mmHg 24%
    15:00 +20°C° 0 mm 4 mps 672 mmHg 25%
    16:00 +18°C° 0 mm 4 mps 672 mmHg 34%
    17:00 +15°C° 0 mm 4 mps 672 mmHg 43%
    18:00 +13°C° 0 mm 4 mps 672 mmHg 52%
    19:00 +12°C° 0 mm 3 mps 672 mmHg 60%
    20:00 +10°C° 0 mm 3 mps 673 mmHg 69%
    21:00 +9°C° 0 mm 3 mps 673 mmHg 77%
    22:00 +9°C° 0 mm 2 mps 673 mmHg 79%
    23:00 +9°C° 0 mm 2 mps 673 mmHg 81%
    Show more